This demonstration page uses our WeatherBlox Daily Observations layout. Learn more.

41.55636, -103.73856

Hourly Observations for August 10, 2016

Temp ( °F °C ) Dew Point ( °F °C ) Humidity (%) Winds ( mph kmh ) Pressure ( in mb ) Visibility ( mi km ) Precip ( " mm )
12:53 am 00:53 Clear 75 23.9 52 11.1 45 45 ESE 9 15 29.72 1007 10 16.0934 0 0
1:53 am 01:53 Clear 72 22.2 55 12.8 55 55 ESE 14 22 29.73 1007 10 16.0934 0 0
2:53 am 02:53 Clear 69 20.6 56 13.3 63 63 S 5 7 29.75 1008 10 16.0934 0 0
3:53 am 03:53 Clear 65 18.3 57 13.9 76 76 ENE 7 11 29.73 1007 10 16.0934 0 0
4:53 am 04:53 Clear 63 17.2 56 13.3 78 78 E 7 11 29.73 1007 10 16.0934 0 0
5:53 am 05:53 Clear 62 16.7 57 13.9 84 84 E 7 11 29.74 1007 10 16.0934 0 0
6:53 am 06:53 Sunny 64 17.8 59 15 84 84 ESE 7 11 29.75 1008 10 16.0934 0 0
7:53 am 07:53 Sunny 70 21.1 58 14.4 66 66 SE 8 13 29.77 1008 10 16.0934 0 0
8:53 am 08:53 Sunny 75 23.9 58 14.4 55 55 SE 5 7 29.76 1008 10 16.0934 0 0
9:53 am 09:53 Sunny 83 28.3 56 13.3 40 40 S 3 6 29.74 1007 10 16.0934 0 0
10:53 am 10:53 Sunny 88 31.1 55 12.8 33 33 Calm 29.74 1007 10 16.0934 0 0
11:53 am 11:53 Sunny 88 31.1 59 15 38 38 E 7 11 29.74 1007 10 16.0934 0 0
12:53 pm 12:53 Sunny 93 33.9 53 11.7 26 26 E 6 9 29.72 1006 10 16.0934 0 0
1:53 pm 13:53 Sunny 95 35 50 10 22 22 SE 5 7 29.71 1006 10 16.0934 0 0
2:53 pm 14:53 Sunny 95 35 46 7.8 19 19 Calm 29.7 1006 10 16.0934 0 0
3:53 pm 15:53 Sunny 96 35.6 51 10.6 22 22 ESE 9 15 29.69 1006 10 16.0934 0 0
4:53 pm 16:53 Sunny 95 35 50 10 22 22 SE 6 9 29.7 1006 10 16.0934 0 0
5:53 pm 17:53 Sunny 89 31.7 57 13.9 34 34 SSW 5 7 29.71 1006 10 16.0934 0 0
6:53 pm 18:53 Sunny 87 30.6 50 10 28 28 WNW 14 22 29.74 1007 10 16.0934 0 0
7:53 pm 19:53 Mostly Sunny 81 27.2 48 8.9 32 32 NW 13 20 29.75 1008 10 16.0934 0 0
8:53 pm 20:53 Clear 77 25 50 10 39 39 WNW 7 11 29.76 1008 10 16.0934 0 0
9:53 pm 21:53 Clear 73 22.8 53 11.7 50 50 Calm 29.74 1007 10 16.0934 0 0
10:53 pm 22:53 Clear 71 21.7 56 13.3 59 59 E 6 9 29.77 1008 10 16.0934 0 0
11:53 pm 23:53 Mostly Clear 71 21.7 57 13.9 61 61 ESE 6 9 29.77 1008 10 16.0934 0 0

Powered by AerisWeather